Home   Weather   West Kirby   Past weeks
Flag for United Kingdom

Past Weather in West Kirby, England, United Kingdom — Yesterday and Last 2 Weeks

Now
57 °F

Partly cloudy.


Feels Like: 55 °F
Forecast: 59 / 51 °F
Wind: 8 mph from Northwest

Location: Liverpool Airport

Current Time: May 25, 2019 at 12:11:54 am

Latest Report: May 24, 2019 at 11:20 pm


Visibility: N/A

Pressure: 30.09 "Hg

Humidity: 82%

Dew Point: 52 °F

Location of West KirbyLocation

Past Weather in West Kirby — Graph

°F

West Kirby Temperature Yesterday

Maximum temperature yesterday: 61 °F (at 1:50 pm)
Minimum temperature yesterday: 54 °F (at 1:20 am)
Average temperature yesterday: 57 °F

High & Low Weather Summary for the Past Weeks

 TemperatureHumidityPressure
High68 °F (May 14, 3:20 pm)94% (May 19, 4:50 am)30.72 "Hg (May 19, 4:50 am)
Low41 °F (May 11, 4:20 am)37% (May 17, 7:50 pm)29.68 "Hg (May 9, 10:20 pm)
Average55 °F69%30.12 "Hg
* Reported May 9 10:20 pm — May 24 10:20 pm, West Kirby. Weather by CustomWeather, © 2019

Note: Actual official high and low records may vary slightly from our data, if they occured in-between our weather recording intervals... More about our weather records

Advertising

West Kirby Weather History for the Previous 24 Hours

Scroll right to see more
 ConditionsComfort  
Time TempWeatherWind HumidityBarometerVisibility
10:20 pm
Fri, May 24
57 °FPassing clouds.7 mph82%30.09 "HgN/A
9:50 pm57 °FPassing clouds.7 mph77%30.09 "HgN/A
9:20 pm57 °FPassing clouds.9 mph77%30.07 "HgN/A
8:50 pm57 °FSunny.8 mph77%30.07 "Hg10 mi
8:20 pm57 °FSunny.12 mph72%30.09 "Hg10 mi
7:50 pm57 °FSunny.12 mph72%30.09 "Hg10 mi
6:50 pm59 °FScattered clouds.12 mph72%30.07 "HgN/A
6:20 pm59 °FScattered clouds.13 mph68%30.07 "HgN/A
5:50 pm59 °FSunny.10 mph68%30.07 "Hg10 mi
5:20 pm59 °FScattered clouds.13 mph68%30.07 "HgN/A
4:50 pm59 °FPassing clouds.14 mph68%30.07 "HgN/A
4:20 pm61 °FPassing clouds.15 mph59%30.09 "HgN/A
3:50 pm59 °FPassing clouds.13 mph63%30.09 "HgN/A
2:50 pm61 °FPassing clouds.14 mph59%30.07 "HgN/A
2:20 pm61 °FPassing clouds.14 mph55%30.07 "HgN/A
1:50 pm61 °FScattered clouds.13 mph59%30.09 "HgN/A
1:20 pm59 °FScattered clouds.13 mph59%30.09 "HgN/A
12:50 pm59 °FPartly sunny.13 mph59%30.09 "HgN/A
12:20 pm59 °FPartly sunny.12 mph59%30.09 "HgN/A
11:50 am55 °FPartly sunny.9 mph63%30.09 "HgN/A
11:20 am57 °FPartly sunny.10 mph59%30.09 "HgN/A
10:50 am57 °FPartly sunny.12 mph63%30.09 "HgN/A
10:20 am57 °FPartly sunny.9 mph67%30.07 "HgN/A
9:50 am57 °FPartly sunny.10 mph67%30.07 "HgN/A
9:20 am57 °FPartly sunny.12 mph63%30.07 "HgN/A
8:50 am55 °FPartly sunny.9 mph67%30.07 "HgN/A
8:20 am57 °FPartly sunny.7 mph63%30.07 "HgN/A
7:50 am57 °FScattered clouds.7 mph63%30.07 "HgN/A
7:20 am57 °FSunny.7 mph63%30.04 "Hg10 mi
6:50 am55 °FSunny.8 mph67%30.04 "Hg10 mi
6:20 am54 °FPassing clouds.7 mph82%30.04 "HgN/A
5:50 am55 °FScattered clouds.5 mph82%30.04 "Hg6 mi
5:20 am54 °FScattered clouds.7 mph88%30.04 "Hg6 mi
4:50 am54 °FClear.9 mph88%30.04 "Hg10 mi
4:20 am54 °FClear.8 mph88%30.04 "Hg10 mi
3:50 am55 °FClear.8 mph82%30.04 "Hg10 mi
3:20 am55 °FClear.9 mph82%30.04 "Hg10 mi
2:50 am55 °FClear.9 mph82%30.04 "Hg10 mi
2:20 am54 °FClear.8 mph88%30.04 "Hg10 mi
1:50 am54 °FClear.9 mph88%30.01 "Hg10 mi
1:20 am54 °FClear.7 mph88%30.01 "Hg10 mi
12:50 am55 °FClear.9 mph77%30.01 "Hg10 mi
12:20 am55 °FClear.8 mph77%30.01 "Hg10 mi
Weather by CustomWeather, © 2019

See weather overview